TimeEDT,TemperatureF,Dew PointF,Humidity,Sea Level PressureIn,VisibilityMPH,Wind Direction,Wind SpeedMPH,Gust SpeedMPH,PrecipitationIn,Events,Conditions,WindDirDegrees,DateUTC
12:53 AM,64.0,55.0,73,30.14,10.0,SSW,3.5,-,N/A,,Clear,210,2013-05-15 04:53:00
1:53 AM,62.1,55.0,78,30.14,10.0,Calm,Calm,-,N/A,,Clear,0,2013-05-15 05:53:00
2:53 AM,60.1,55.0,83,30.13,10.0,Calm,Calm,-,N/A,,Clear,0,2013-05-15 06:53:00
3:53 AM,60.1,55.0,83,30.12,10.0,SW,3.5,-,N/A,,Clear,220,2013-05-15 07:53:00
4:53 AM,60.1,54.0,80,30.13,10.0,SSW,4.6,-,N/A,,Clear,210,2013-05-15 08:53:00
5:53 AM,59.0,54.0,83,30.14,10.0,SW,3.5,-,N/A,,Clear,220,2013-05-15 09:53:00
6:53 AM,57.9,54.0,87,30.15,10.0,SW,3.5,-,N/A,,Clear,220,2013-05-15 10:53:00
7:53 AM,61.0,55.0,81,30.16,10.0,WSW,3.5,-,N/A,,Clear,240,2013-05-15 11:53:00
8:53 AM,66.0,55.9,70,30.17,10.0,SW,3.5,-,N/A,,Clear,230,2013-05-15 12:53:00
9:53 AM,73.0,57.0,57,30.17,10.0,Variable,3.5,-,N/A,,Clear,0,2013-05-15 13:53:00
10:53 AM,75.9,55.9,50,30.17,10.0,NW,8.1,-,N/A,,Clear,310,2013-05-15 14:53:00
11:53 AM,79.0,54.0,42,30.16,10.0,NW,9.2,-,N/A,,Clear,310,2013-05-15 15:53:00
12:53 PM,82.0,55.9,41,30.14,10.0,West,10.4,18.4,N/A,,Clear,260,2013-05-15 16:53:00
1:53 PM,84.0,54.0,35,30.12,10.0,West,6.9,-,N/A,,Clear,280,2013-05-15 17:53:00
2:53 PM,84.0,53.1,34,30.09,10.0,Variable,5.8,16.1,N/A,,Clear,0,2013-05-15 18:53:00
3:53 PM,84.9,52.0,32,30.06,10.0,West,6.9,-,N/A,,Clear,260,2013-05-15 19:53:00
4:53 PM,86.0,52.0,31,30.04,10.0,WNW,9.2,-,N/A,,Clear,300,2013-05-15 20:53:00
5:53 PM,84.9,51.1,31,30.02,10.0,Variable,5.8,-,N/A,,Clear,0,2013-05-15 21:53:00
6:53 PM,84.9,52.0,32,30.02,10.0,Variable,6.9,-,N/A,,Clear,0,2013-05-15 22:53:00
7:53 PM,82.0,53.1,37,30.01,10.0,WSW,5.8,-,N/A,,Clear,240,2013-05-15 23:53:00
8:53 PM,78.1,55.0,45,30.02,10.0,SW,3.5,-,N/A,,Clear,220,2013-05-16 00:53:00
9:53 PM,70.0,57.9,65,30.04,10.0,Calm,Calm,-,N/A,,Clear,0,2013-05-16 01:53:00
10:53 PM,66.0,57.9,75,30.05,10.0,Calm,Calm,-,N/A,,Clear,0,2013-05-16 02:53:00
11:53 PM,66.0,57.9,75,30.04,10.0,Calm,Calm,-,N/A,,Clear,0,2013-05-16 03:53:00